Wetbulb
61.30 62.35 59.89 58.62 49.00 47.55 44.96 45.47 48.76 49.96 50.86 54.37 55.47 53.10 53.88 55.75 55.29 52.94 67.88 72.51 73.18 73.71 74.70 72.92 70.86 72.18 72.91 72.99 73.25 73.86 74.04 74.03 73.91 73.86 73.78 73.88 74.00 73.92 73.60 73.31 73.45 73.49 73.87 73.96 73.21 73.11 73.21 72.95 72.40
62.29 58.83 57.34 55.54 45.04 43.03 44.46 48.06 47.04 49.67 52.31 53.76 54.10 55.51 55.19 54.11 59.53 63.28 68.28 71.99 73.51 73.52 74.58 74.22 70.65 71.52 72.65 73.00 73.30 73.60 74.22 74.31 73.91 73.92 73.93 73.91 73.83 73.62 73.09 72.99 72.72 73.09 73.72 74.06 73.48 73.38 73.00 72.42 71.52
59.56 57.27 52.62 48.70 46.30 42.86 44.31 47.38 48.89 51.79 52.31 52.67 54.22 58.13 56.80 56.31 63.35 64.91 68.74 72.22 73.39 73.18 74.08 74.07 70.59 71.17 72.23 72.59 72.87 73.21 73.49 73.59 73.30 73.57 73.93 73.93 73.68 73.34 73.00 72.51 72.58 73.14 73.74 73.84 73.23 72.74 72.52 71.47 70.63
56.60 54.54 52.84 45.66 43.92 46.59 46.88 48.51 51.20 51.42 51.44 52.78 53.74 52.66 56.92 62.76 64.39 67.21 69.91 72.37 72.57 72.88 73.37 71.24 70.03 70.86 71.79 72.11 72.55 72.64 72.18 72.55 72.70 73.15 73.47 73.68 72.41 72.07 72.82 72.12 72.63 73.19 73.07 73.04 72.79 72.01 71.52 70.22 69.57
56.70 53.07 45.88 44.12 44.52 47.23 49.44 49.78 50.49 51.36 51.39 51.05 51.25 51.26 54.04 61.67 66.74 69.21 70.25 71.89 71.80 72.75 73.63 73.41 69.28 70.16 71.10 72.02 72.29 72.16 71.77 71.66 72.16 72.73 71.49 71.75 71.35 72.39 71.43 71.05 71.07 72.27 71.86 71.81 71.34 70.98 70.22 69.69 69.05
50.65 51.25 43.76 42.36 44.53 47.17 49.19 50.46 50.50 49.69 50.64 51.12 50.33 51.42 54.15 63.86 66.00 69.26 71.23 71.68 72.82 72.90 73.65 73.66 70.78 70.23 70.25 71.07 71.24 71.06 71.14 70.76 70.95 71.07 71.10 71.77 71.66 70.53 70.01 69.79 69.93 70.49 70.65 69.81 69.87 69.95 69.59 69.12 68.76
48.70 46.80 43.73 44.62 44.56 44.74 47.36 50.62 49.04 48.77 48.98 49.39 52.29 50.62 55.40 60.56 66.03 70.29 71.60 72.42 73.23 73.47 73.44 72.49 72.74 71.97 69.42 68.82 69.76 69.51 69.97 70.36 70.21 70.71 70.01 69.43 69.00 68.91 69.05 68.86 68.96 68.46 69.12 69.02 69.61 69.39 68.79 68.58 67.73
50.79 48.43 44.77 45.69 43.62 44.10 48.60 49.19 50.30 49.50 49.06 53.65 55.06 51.90 54.07 60.10 64.99 70.05 71.92 72.19 72.77 73.14 72.89 71.18 71.35 72.18 71.59 71.43 68.58 69.14 69.29 69.29 68.38 69.74 67.41 67.25 68.19 68.18 68.16 67.81 67.82 67.24 68.29 68.64 68.79 68.03 68.03 67.09 66.65
52.26 45.43 43.57 44.73 44.14 46.06 49.41 47.81 50.66 52.05 50.32 51.53 53.28 53.91 56.44 61.33 65.49 68.32 69.99 70.49 70.85 71.68 72.86 73.20 70.80 71.29 72.12 72.45 71.74 69.74 69.50 68.57 68.19 68.31 67.14 67.05 70.02 69.57 67.22 67.05 66.86 67.52 67.51 68.19 68.28 67.34 66.85 65.51 65.14
48.19 44.92 45.32 48.95 48.19 46.72 48.57 48.83 49.51 49.30 49.67 50.29 51.79 54.66 55.81 59.94 61.87 64.21 67.09 67.35 68.54 69.33 71.35 72.37 70.76 71.29 71.24 70.84 71.93 71.91 72.33 72.10 71.49 70.88 69.18 70.04 70.02 68.81 67.68 66.40 66.25 66.70 67.00 67.38 67.01 66.27 65.42 65.67 67.95
48.61 44.77 48.53 48.04 48.30 49.14 48.17 48.25 49.99 48.20 47.19 49.97 50.23 51.99 54.09 56.72 57.26 61.72 64.36 67.14 67.47 68.64 69.59 70.67 69.88 70.45 72.21 70.29 70.32 70.91 70.35 70.34 70.87 70.55 68.99 68.96 68.98 67.88 66.44 66.63 66.19 68.81 66.56 66.14 66.18 66.23 68.45 67.65 67.31
45.17 47.84 48.02 48.60 49.01 48.29 47.34 49.66 48.34 49.36 50.21 52.56 52.98 53.47 53.84 54.43 55.65 56.65 60.56 64.25 67.32 68.02 68.94 69.04 69.07 69.41 70.81 69.11 69.19 69.19 67.68 67.88 68.60 69.46 69.82 67.23 67.24 67.92 67.25 64.92 66.14 66.75 65.51 64.98 65.31 68.20 67.92 67.38 67.06
44.44 45.93 47.20 48.16 48.06 48.13 48.77 47.60 47.87 48.87 51.80 53.27 53.54 53.71 54.16 54.56 54.95 56.98 58.72 61.51 65.49 67.45 68.79 68.50 69.32 69.11 68.07 67.18 67.48 67.03 66.63 67.01 67.43 68.19 68.59 67.37 66.18 66.76 66.17 65.70 66.90 66.99 65.77 65.22 65.00 67.39 66.65 66.22 66.23
47.14 46.55 47.03 47.79 47.65 48.38 46.93 47.74 48.49 49.67 52.05 51.80 52.05 52.57 53.90 54.19 54.87 56.70 57.79 59.84 62.21 66.47 68.36 69.07 68.46 69.13 69.61 69.74 67.18 65.89 66.89 66.68 66.70 67.30 67.41 66.37 65.04 66.10 65.47 65.89 66.53 65.79 64.52 64.60 64.67 66.23 65.78 65.88 65.93
46.39 42.72 44.79 45.78 46.50 46.19 48.50 45.29 46.16 50.25 50.88 50.61 51.76 53.24 53.98 55.02 55.40 56.22 58.05 59.67 62.75 65.77 68.10 68.58 68.26 68.40 68.64 68.80 68.64 67.38 66.21 67.27 66.40 65.92 66.32 65.40 65.88 66.27 66.23 66.42 66.38 64.94 65.17 63.87 64.05 65.81 66.13 65.21 65.17
40.47 42.55 38.91 44.10 46.91 47.86 47.39 41.20 46.98 50.18 50.38 50.36 51.77 52.80 53.38 54.35 54.64 56.51 58.04 60.54 63.34 65.98 67.33 68.42 66.98 67.67 67.43 67.94 67.39 66.96 65.68 66.07 65.95 65.72 65.99 64.97 64.19 64.56 64.54 64.47 65.40 65.18 64.01 64.34 63.10 65.49 64.27 64.19 63.94
39.22 34.64 37.43 41.26 47.09 46.51 45.99 43.03 47.87 50.60 50.42 50.02 51.11 52.24 53.10 53.93 54.51 56.72 58.43 60.99 63.66 66.48 67.30 67.45 66.93 67.05 67.63 66.53 65.67 65.91 64.79 64.27 64.07 64.47 64.89 64.45 64.43 63.92 63.92 65.75 66.01 64.60 63.05 64.26 61.82 63.58 64.16 63.13 63.12
35.09 35.44 38.83 38.33 43.12 44.13 42.87 43.34 46.64 49.29 50.31 50.42 51.30 52.35 53.05 53.57 54.31 56.49 57.98 61.70 64.40 66.49 67.70 67.49 66.72 67.46 66.08 63.31 63.68 64.25 64.30 63.59 62.80 62.22 62.61 62.90 63.23 63.70 64.52 64.05 64.11 63.21 62.53 61.17 61.30 62.11 63.56 63.48 62.50
39.26 37.08 35.15 39.11 42.36 41.16 41.38 42.85 45.41 48.42 48.98 49.67 50.72 51.94 52.74 53.57 55.65 56.59 58.20 60.93 64.38 65.95 66.81 66.68 65.19 66.59 64.22 62.70 62.64 61.95 62.49 62.52 62.53 63.19 63.07 63.48 63.08 62.43 62.78 62.90 62.71 61.27 60.26 59.99 60.32 62.54 62.20 61.55 62.80
38.45 36.86 37.30 40.34 42.60 42.24 42.26 42.63 46.58 47.92 48.23 49.59 50.42 51.78 52.81 53.76 54.65 55.68 57.26 60.45 63.68 64.83 66.25 65.98 64.73 64.79 64.64 64.36 63.64 62.75 61.85 62.69 63.26 63.84 65.00 65.03 64.26 64.25 62.57 61.91 61.34 60.90 59.88 58.69 59.30 61.35 60.75 61.26 62.13
37.75 36.44 37.28 37.95 42.33 44.04 42.94 42.03 44.75 47.27 48.96 49.32 50.37 51.66 52.83 53.40 53.98 54.87 55.81 58.72 63.16 63.90 65.45 64.17 63.92 65.00 63.76 64.79 62.96 63.29 62.81 61.84 61.52 62.74 63.73 63.26 62.64 62.19 61.87 61.56 60.55 60.55 59.40 57.67 58.50 61.76 61.39 59.71 61.75
35.19 41.63 40.48 39.62 38.50 35.59 43.27 34.49 42.88 45.82 46.86 48.41 49.98 51.42 52.14 53.16 54.49 55.10 55.82 57.26 61.89 63.46 65.70 64.11 64.09 65.01 63.25 63.95 62.57 61.94 60.67 58.55 61.47 61.56 61.71 62.76 61.52 61.53 60.95 61.19 60.48 59.98 59.49 58.35 58.50 61.26 61.92 61.69 59.72
38.33 42.57 40.90 40.53 38.33 38.31 39.10 36.88 41.80 45.64 44.34 47.65 49.78 51.56 52.66 53.88 54.89 55.30 56.15 56.99 61.63 63.71 64.96 63.91 62.74 63.46 63.14 62.35 63.85 61.74 61.17 60.65 62.48 61.48 60.83 59.78 59.16 59.47 59.43 59.60 59.38 58.88 59.26 58.60 58.80 60.61 62.09 62.16 61.18
43.39 40.49 40.22 40.91 38.68 31.51 38.04 38.12 41.29 44.19 45.65 48.50 51.17 52.94 54.01 55.31 56.72 57.07 57.46 58.07 60.63 63.66 64.63 61.94 60.78 60.92 62.11 62.58 63.73 62.15 61.30 60.97 60.64 60.28 59.10 58.93 58.65 58.82 57.85 57.16 57.72 58.12 58.08 58.09 58.86 61.90 61.77 61.16 61.54
42.13 37.20 31.47 30.60 29.75 31.36 39.30 37.82 41.36 46.28 48.75 50.06 51.00 52.57 54.68 56.53 57.54 57.71 57.53 58.69 60.35 62.32 61.47 59.20 59.62 59.36 60.91 63.67 62.92 61.23 61.43 61.33 59.85 59.71 58.54 58.31 57.88 57.67 57.62 57.16 56.42 56.84 57.58 57.94 58.20 59.08 60.10 60.55 60.80
39.26 37.69 32.13 25.30 29.14 34.19 39.53 35.20 41.96 48.18 50.92 52.17 52.32 52.73 53.57 54.47 57.07 57.95 57.59 59.46 60.26 61.93 58.31 58.05 58.47 59.22 60.01 62.77 61.50 59.86 61.25 60.58 59.66 59.94 60.16 59.40 59.00 58.17 58.27 57.40 57.64 56.93 57.14 57.95 58.65 58.38 58.80 60.04 60.80
38.41 35.62 41.08 34.14 35.89 32.10 36.81 41.07 46.06 47.90 48.83 48.97 49.42 50.03 50.48 51.45 53.71 57.72 57.41 59.79 60.35 61.04 57.25 58.16 58.72 59.04 59.23 61.18 58.98 58.74 60.60 60.00 59.16 59.94 60.98 61.33 61.80 60.93 59.07 58.85 57.23 56.79 56.79 57.09 57.44 57.26 57.18 58.28 59.17
41.44 43.20 33.65 36.14 27.14 26.93 35.30 37.03 38.76 43.40 44.69 46.26 47.29 47.77 47.67 48.08 48.84 53.78 57.28 58.80 60.76 59.86 58.17 59.77 61.57 58.62 59.21 59.08 58.64 58.10 59.84 60.75 60.32 60.50 60.23 60.61 60.74 59.96 59.93 58.99 58.19 56.82 56.92 56.62 56.88 56.10 57.19 57.12 57.52
38.35 36.43 37.65 37.35 35.20 30.28 30.26 36.65 45.62 43.15 43.70 44.72 47.29 45.99 45.32 44.83 45.57 48.47 56.96 58.23 59.12 58.58 59.06 58.89 59.31 57.55 57.91 59.15 58.93 58.30 58.91 59.65 59.63 59.38 59.65 60.10 60.53 59.83 59.79 58.65 57.88 56.82 56.00 55.91 55.51 54.52 55.13 55.86 56.60
41.83 38.97 39.07 33.74 31.54 34.80 33.63 36.16 48.05 46.87 46.25 47.27 44.46 44.94 43.67 42.85 43.24 45.33 48.93 56.47 56.61 56.88 56.78 57.27 57.94 57.33 58.44 58.92 58.41 58.62 60.08 59.14 58.23 58.25 59.90 61.40 60.27 60.21 60.05 59.62 57.55 57.23 56.55 55.91 54.70 53.53 53.67 54.42 54.44
MSLP
1013.01 1012.62 1012.02 1011.12 1009.85 1007.34 1004.83 1004.22 1004.57 1004.27 1004.46 1004.82 1005.02 1004.56 1004.09 1003.95 1003.59 1004.08 1005.13 1005.59 1006.09 1006.81 1007.48 1008.69 1009.11 1009.55 1009.97 1010.17 1010.41 1010.53 1010.82 1011.21 1011.42 1011.77 1012.25 1012.45 1012.72 1013.03 1013.47 1013.80 1014.08 1014.34 1014.56 1014.89 1015.28 1015.63 1015.88 1016.32 1016.68
1011.71 1012.10 1011.52 1009.63 1008.07 1005.25 1004.00 1004.02 1004.30 1004.18 1004.76 1005.30 1005.35 1004.99 1004.68 1004.00 1004.44 1004.71 1005.27 1005.95 1006.20 1006.81 1007.36 1008.19 1009.21 1009.67 1010.00 1010.31 1010.38 1010.64 1010.90 1011.23 1011.58 1011.86 1012.36 1012.65 1013.00 1013.19 1013.52 1013.80 1014.08 1014.37 1014.68 1015.16 1015.34 1015.62 1016.14 1016.58 1016.95
1011.65 1011.24 1009.82 1008.38 1006.51 1004.59 1003.63 1003.91 1004.18 1004.73 1005.34 1005.18 1004.79 1004.81 1004.33 1004.07 1004.61 1004.58 1005.10 1006.05 1006.52 1006.98 1007.39 1008.06 1009.30 1009.70 1010.08 1010.22 1010.52 1010.52 1010.87 1011.15 1011.66 1012.02 1012.38 1012.71 1013.10 1013.40 1013.67 1014.01 1014.24 1014.56 1014.68 1015.04 1015.61 1015.81 1016.31 1016.82 1017.18
1011.18 1010.69 1009.69 1007.70 1005.23 1005.00 1004.33 1003.91 1004.88 1005.00 1005.19 1005.25 1005.05 1004.43 1004.65 1004.82 1004.77 1004.91 1005.59 1006.36 1006.72 1007.18 1007.67 1008.56 1009.31 1009.66 1010.02 1010.15 1010.43 1010.58 1010.81 1011.13 1011.55 1011.89 1012.12 1012.51 1012.92 1013.33 1013.77 1014.08 1014.24 1014.61 1015.13 1015.29 1015.68 1015.98 1016.74 1017.07 1017.45
1010.61 1008.99 1007.45 1005.95 1004.88 1004.54 1004.93 1005.01 1005.17 1004.94 1005.12 1005.25 1005.13 1004.39 1004.45 1004.66 1005.09 1005.47 1005.76 1006.36 1006.69 1007.37 1007.80 1008.46 1009.20 1009.54 1009.89 1010.26 1010.44 1010.70 1010.83 1011.16 1011.56 1011.83 1011.88 1012.52 1012.82 1013.51 1013.88 1014.13 1014.29 1014.68 1015.23 1015.58 1015.95 1016.62 1017.24 1017.34 1017.68
1009.52 1008.43 1006.40 1004.62 1004.41 1005.01 1005.22 1004.52 1005.18 1005.15 1004.94 1005.04 1005.06 1004.70 1004.48 1004.87 1005.12 1005.42 1005.81 1006.32 1006.79 1007.40 1007.92 1008.30 1009.29 1009.59 1009.75 1010.27 1010.44 1010.73 1010.95 1011.23 1011.55 1011.76 1012.08 1012.34 1012.93 1013.60 1014.27 1014.48 1014.70 1014.96 1015.26 1015.90 1016.39 1016.88 1017.46 1017.83 1018.11
1008.71 1007.79 1005.71 1004.77 1004.35 1004.57 1005.15 1004.59 1005.07 1004.91 1004.59 1004.40 1004.77 1004.62 1004.29 1004.61 1005.36 1005.82 1006.03 1006.51 1007.02 1007.60 1008.05 1008.62 1008.94 1009.39 1009.87 1010.21 1010.54 1010.72 1011.05 1011.30 1011.64 1011.86 1012.23 1012.56 1013.03 1013.41 1014.38 1015.13 1015.50 1015.65 1016.15 1016.34 1016.61 1017.11 1017.54 1018.03 1018.37
1008.61 1007.49 1005.97 1004.88 1004.91 1004.56 1005.02 1004.99 1005.07 1004.88 1004.51 1004.90 1004.88 1004.19 1004.18 1005.15 1005.78 1006.20 1006.36 1006.78 1007.14 1007.62 1008.24 1008.81 1008.91 1009.20 1009.68 1010.07 1010.57 1010.82 1011.11 1011.50 1011.85 1012.04 1012.63 1012.98 1013.20 1013.74 1014.64 1014.97 1015.82 1015.59 1016.71 1016.85 1016.93 1017.33 1017.61 1018.19 1018.64
1008.91 1007.13 1005.00 1004.78 1005.15 1005.02 1005.23 1005.05 1005.03 1005.12 1005.03 1004.73 1004.80 1004.65 1005.17 1005.73 1006.04 1006.14 1006.29 1006.68 1006.99 1007.35 1007.83 1008.46 1008.84 1009.11 1009.52 1009.81 1010.22 1010.88 1011.23 1011.51 1012.01 1012.19 1012.66 1013.15 1013.41 1014.13 1014.87 1014.70 1015.49 1015.93 1015.93 1016.45 1017.18 1017.58 1017.79 1018.37 1018.93
1008.29 1006.41 1004.86 1005.01 1005.57 1005.53 1005.46 1005.11 1004.95 1004.94 1004.64 1004.61 1004.53 1004.61 1005.09 1005.61 1005.76 1005.75 1005.85 1006.01 1006.59 1007.03 1007.74 1008.19 1008.79 1009.01 1009.28 1009.49 1010.07 1010.43 1010.65 1011.12 1011.52 1011.97 1012.51 1012.76 1013.29 1014.05 1014.36 1014.84 1015.30 1015.24 1015.51 1016.07 1016.92 1017.65 1017.79 1018.39 1018.69
1007.47 1006.06 1005.67 1006.01 1006.24 1006.04 1005.64 1005.23 1005.20 1004.83 1004.44 1004.32 1004.22 1004.15 1004.61 1004.94 1005.22 1005.52 1005.44 1005.31 1005.71 1006.72 1007.59 1008.35 1008.85 1009.02 1009.09 1009.45 1009.94 1010.45 1010.84 1011.13 1011.39 1011.78 1012.35 1012.63 1013.04 1013.83 1014.52 1014.62 1015.32 1014.84 1015.34 1015.99 1017.07 1017.75 1017.34 1017.83 1018.26
1007.65 1007.04 1006.72 1006.20 1006.20 1006.28 1005.77 1005.44 1004.76 1004.39 1004.23 1004.40 1003.87 1003.89 1004.26 1004.47 1004.61 1004.60 1004.62 1004.55 1005.00 1005.94 1007.23 1008.01 1008.65 1009.02 1009.22 1009.48 1009.98 1010.31 1010.91 1011.19 1011.38 1011.63 1012.06 1012.64 1012.88 1013.06 1013.53 1014.35 1014.48 1015.04 1015.31 1015.89 1016.78 1016.78 1017.24 1017.72 1017.92
1007.55 1006.85 1006.57 1006.61 1006.44 1006.17 1005.89 1005.09 1004.36 1003.95 1003.99 1003.87 1003.71 1003.68 1003.73 1003.77 1003.64 1003.51 1003.60 1003.79 1004.21 1005.26 1006.41 1007.62 1008.19 1008.76 1009.27 1009.74 1009.91 1010.32 1010.71 1011.04 1011.27 1011.57 1012.03 1012.53 1012.62 1012.90 1013.27 1013.57 1014.17 1015.04 1015.77 1015.82 1016.49 1016.39 1017.14 1017.51 1017.78
1007.02 1007.22 1006.66 1006.56 1006.26 1005.92 1005.51 1004.60 1004.38 1003.68 1003.55 1003.37 1003.35 1003.00 1002.90 1002.83 1002.53 1002.42 1002.70 1002.95 1003.46 1004.30 1005.51 1006.84 1007.47 1008.32 1008.85 1009.19 1009.69 1010.12 1010.25 1010.82 1011.19 1011.39 1011.65 1012.36 1012.48 1012.74 1013.35 1013.71 1014.41 1014.94 1015.66 1015.68 1016.05 1016.10 1016.86 1017.14 1017.47
1008.00 1007.39 1006.63 1006.08 1005.69 1005.36 1005.32 1004.00 1003.15 1002.94 1002.77 1002.57 1002.23 1002.09 1001.88 1001.89 1001.69 1001.62 1001.88 1002.06 1002.74 1003.63 1004.84 1006.17 1006.98 1007.79 1008.40 1008.80 1009.25 1009.77 1009.95 1010.51 1011.05 1011.32 1011.66 1012.17 1012.30 1012.69 1013.13 1013.59 1014.19 1014.78 1015.46 1015.43 1016.04 1016.06 1016.62 1016.70 1017.20
1008.36 1007.30 1006.15 1005.08 1005.16 1005.14 1005.07 1002.74 1002.24 1002.29 1002.01 1001.66 1001.37 1001.12 1000.77 1000.60 1000.52 1000.70 1000.88 1001.40 1002.07 1002.89 1004.02 1005.65 1006.61 1007.19 1007.90 1008.55 1009.05 1009.47 1009.84 1010.39 1010.67 1011.04 1011.47 1012.03 1012.49 1012.89 1013.19 1013.67 1014.03 1014.55 1015.30 1015.68 1016.13 1016.17 1016.32 1016.65 1017.24
1007.95 1006.57 1005.66 1005.29 1005.29 1004.94 1004.29 1002.58 1002.28 1002.10 1001.98 1001.39 1000.93 1000.38 999.97 999.75 999.77 999.92 1000.13 1000.64 1001.43 1002.25 1003.36 1004.88 1006.18 1006.61 1007.36 1008.42 1008.92 1009.31 1009.79 1010.46 1010.71 1011.02 1011.30 1011.69 1012.13 1012.61 1012.96 1013.21 1013.55 1014.18 1015.01 1015.38 1015.73 1016.10 1016.03 1016.52 1017.14
1006.71 1006.72 1005.87 1005.53 1005.19 1005.06 1004.18 1002.93 1002.50 1001.92 1001.36 1000.95 1000.45 999.90 999.47 999.24 999.06 999.18 999.46 1000.13 1001.03 1001.92 1003.03 1004.41 1005.67 1006.08 1006.96 1008.45 1008.90 1009.17 1009.69 1010.34 1010.57 1010.98 1011.24 1011.61 1011.91 1012.24 1012.52 1012.90 1013.33 1013.98 1014.81 1015.45 1015.90 1016.10 1016.29 1016.36 1016.99
1007.28 1006.91 1006.34 1005.99 1005.64 1005.20 1004.05 1002.58 1001.71 1001.06 1000.36 999.85 999.69 999.26 998.85 998.60 998.72 998.65 998.99 999.94 1000.90 1001.62 1002.60 1003.75 1005.00 1005.71 1006.89 1007.81 1008.24 1008.80 1009.35 1009.84 1010.27 1010.55 1010.95 1011.20 1011.62 1011.97 1012.32 1012.71 1013.05 1013.62 1014.40 1014.95 1015.52 1015.73 1016.03 1016.54 1017.07
1007.45 1006.75 1006.08 1005.70 1005.57 1005.02 1003.41 1001.88 1000.94 1000.21 999.51 999.01 998.71 998.52 998.19 998.05 998.05 997.95 998.43 999.53 1000.44 1001.17 1002.09 1003.30 1004.34 1005.12 1006.38 1006.91 1007.53 1008.31 1009.09 1009.44 1009.60 1009.90 1009.96 1010.28 1010.93 1011.24 1011.87 1012.32 1012.55 1013.10 1013.97 1014.88 1015.31 1015.47 1015.92 1016.17 1016.82
1007.11 1006.73 1006.31 1005.98 1005.56 1004.66 1003.11 1000.48 999.02 998.75 998.19 998.04 997.94 997.79 997.63 997.60 997.42 997.43 997.60 998.69 999.89 1000.64 1001.45 1002.81 1003.73 1004.64 1005.68 1006.22 1007.17 1008.02 1008.75 1009.32 1009.63 1009.58 1009.67 1010.12 1010.59 1010.92 1011.25 1011.72 1011.98 1012.20 1013.12 1014.30 1014.83 1015.21 1015.28 1015.62 1016.26
1006.38 1006.44 1006.57 1006.25 1005.76 1003.72 1003.08 1000.27 998.71 998.25 997.48 997.54 997.41 997.18 997.03 997.18 996.98 996.93 996.90 997.45 998.88 999.94 1001.08 1002.59 1003.47 1004.30 1005.48 1006.09 1006.73 1007.30 1007.71 1008.39 1008.53 1009.28 1009.79 1010.06 1010.32 1010.45 1010.35 1010.43 1011.58 1012.13 1012.59 1013.65 1014.43 1014.66 1014.82 1014.97 1015.64
1006.23 1006.66 1006.47 1006.18 1005.46 1004.21 1002.73 1001.47 998.06 997.83 997.61 997.46 997.02 996.81 996.75 996.70 996.51 996.17 996.23 996.66 998.06 999.40 1000.56 1002.25 1003.32 1004.14 1005.00 1005.78 1006.00 1006.75 1007.43 1007.81 1007.97 1009.13 1009.54 1010.14 1010.44 1010.45 1010.22 1010.39 1011.01 1011.84 1012.32 1013.07 1014.01 1014.27 1014.63 1014.97 1015.44
1006.74 1006.67 1006.32 1005.96 1005.34 1003.77 1001.61 1000.69 997.94 998.03 998.93 998.62 998.34 998.05 997.82 997.63 997.53 996.93 996.45 996.59 997.67 998.95 1000.29 1002.04 1003.15 1004.08 1004.83 1005.45 1005.59 1006.34 1007.09 1007.53 1008.01 1008.89 1009.43 1010.00 1010.46 1010.66 1010.78 1010.93 1011.32 1011.55 1012.39 1012.81 1013.53 1013.95 1014.44 1014.86 1015.38
1006.58 1006.21 1005.06 1004.90 1004.72 1001.92 1001.20 1000.45 998.51 999.18 999.58 999.48 999.32 999.44 999.22 998.76 997.93 997.48 996.96 997.13 997.81 998.89 1000.43 1002.10 1003.02 1003.80 1004.62 1005.03 1005.52 1006.50 1006.87 1007.30 1007.91 1008.68 1009.16 1009.75 1010.30 1010.63 1011.08 1011.52 1011.81 1011.90 1012.31 1012.95 1013.64 1014.16 1014.63 1015.07 1015.37
1005.63 1005.52 1004.62 1003.84 1002.76 1001.37 1001.22 999.67 998.81 999.93 999.99 1000.26 1000.47 1000.49 1000.45 1000.05 999.14 998.01 997.58 997.81 998.46 999.37 1001.03 1002.33 1003.08 1003.70 1004.44 1004.83 1005.62 1006.69 1006.65 1007.18 1007.93 1008.44 1008.84 1009.42 1009.95 1010.41 1010.93 1011.45 1011.93 1012.41 1012.63 1013.19 1013.70 1014.35 1014.84 1015.31 1015.57
1005.57 1005.43 1005.28 1005.07 1004.24 1002.99 1000.51 999.28 999.73 999.81 1000.43 1001.42 1001.34 1001.44 1001.70 1001.60 1000.76 999.12 998.04 998.45 999.03 999.75 1001.32 1002.23 1002.96 1003.73 1004.47 1005.06 1005.89 1006.67 1006.63 1007.05 1007.77 1008.22 1008.49 1008.83 1009.27 1009.99 1010.67 1011.19 1011.81 1012.28 1012.90 1013.26 1013.77 1014.22 1014.93 1015.35 1015.55
1005.38 1005.40 1006.01 1005.55 1004.09 1002.08 999.90 999.28 999.16 1000.48 1001.73 1002.08 1002.16 1002.51 1002.93 1003.03 1002.46 1001.03 999.46 999.23 999.20 1000.25 1001.58 1002.24 1002.47 1003.63 1004.35 1005.16 1005.91 1006.60 1006.70 1006.78 1007.33 1007.85 1008.31 1008.85 1009.31 1009.88 1010.35 1010.87 1011.49 1012.13 1012.60 1013.23 1013.62 1014.22 1014.96 1015.27 1015.53
1005.58 1005.70 1005.93 1005.70 1004.90 1002.77 1000.90 999.73 1000.81 1001.95 1002.75 1002.72 1003.31 1004.13 1004.42 1004.32 1004.02 1002.78 1000.85 1000.05 1000.41 1001.08 1001.67 1002.22 1002.68 1003.84 1004.43 1005.04 1005.72 1006.28 1006.76 1007.08 1007.51 1008.06 1008.29 1008.71 1009.15 1009.58 1009.99 1010.60 1011.12 1011.73 1012.19 1012.90 1013.36 1013.86 1014.55 1015.15 1015.37
1004.42 1004.74 1005.10 1004.80 1004.60 1004.04 1003.14 1000.96 1001.40 1002.28 1002.52 1003.06 1004.38 1004.89 1005.60 1005.66 1005.52 1004.58 1003.30 1001.67 1001.80 1002.26 1002.62 1003.03 1003.54 1004.24 1004.74 1005.29 1005.77 1006.07 1006.37 1007.16 1007.71 1008.04 1008.00 1008.36 1008.80 1009.35 1009.67 1010.37 1010.97 1011.49 1011.95 1012.53 1013.03 1013.56 1013.96 1014.33 1014.57
Wind_Speed
10 10 5 6 8 7 13 5 6 5 4 2 1 8 6 7 6 3 4 10 9 14 13 16 11 11 10 11 10 11 15 17 18 19 18 19 19 18 17 16 16 16 19 19 20 18 19 18 16
10 8 6 3 10 13 10 5 10 6 1 4 7 10 9 11 3 1 9 9 12 12 12 13 14 10 9 11 11 11 14 16 17 18 18 18 18 19 18 17 16 18 19 19 20 20 19 18 16
12 9 6 7 12 16 12 6 8 5 2 3 4 5 3 1 3 3 5 13 12 12 11 12 13 11 10 12 10 12 14 16 16 17 17 18 18 19 19 16 16 18 19 20 20 19 19 17 16
8 7 5 12 18 9 15 5 5 5 4 1 3 7 3 2 1 4 10 14 12 11 11 15 13 12 11 11 11 11 15 12 14 16 19 19 21 20 17 15 16 18 19 18 17 18 18 16 17
7 5 13 16 21 18 11 9 6 10 4 5 8 10 6 4 5 6 11 14 13 11 10 14 12 12 12 11 12 11 12 11 14 16 20 21 18 17 17 17 18 16 17 16 17 19 16 17 17
8 6 13 18 20 13 17 16 13 13 14 12 11 8 8 5 7 8 12 14 12 12 11 12 13 12 12 12 11 11 10 10 9 12 14 15 18 19 17 14 12 13 15 13 17 18 17 16 16
16 11 19 21 19 9 16 10 12 15 14 15 2 8 5 4 2 3 10 12 12 10 11 10 13 14 10 11 10 10 10 10 11 10 10 11 11 13 12 6 6 7 4 14 18 18 19 17 17
11 10 21 17 15 19 17 9 12 11 14 2 4 6 4 9 6 5 9 11 12 11 11 10 12 11 12 12 10 8 8 8 7 7 8 11 13 17 16 15 14 13 12 12 17 17 18 17 16
11 11 16 19 14 13 10 10 6 6 11 12 8 6 7 7 5 6 10 12 11 10 11 11 11 11 9 11 11 10 8 8 10 12 15 13 10 14 15 14 17 17 15 19 16 17 17 15 15
15 15 21 16 11 14 12 13 13 11 13 13 13 14 6 6 6 7 13 14 14 12 11 10 10 12 11 8 8 11 12 10 11 11 13 11 12 13 14 14 17 19 17 19 20 18 19 18 13
13 21 15 11 13 15 16 16 15 15 19 16 17 17 11 12 10 10 13 16 16 12 9 10 9 10 12 9 6 4 3 4 7 14 11 9 10 11 10 9 6 9 15 10 11 13 13 15 11
15 14 17 16 15 17 19 20 22 21 19 17 21 17 15 16 15 15 15 15 16 15 13 12 11 11 11 6 6 6 5 4 5 9 14 8 7 10 11 7 11 7 6 12 11 9 13 14 15
17 18 16 16 18 20 20 23 25 24 17 21 20 18 16 17 18 17 15 14 16 16 15 14 13 12 9 8 6 5 6 6 8 10 12 9 9 10 11 9 8 8 6 10 11 12 12 12 13
8 9 13 13 16 18 20 22 21 18 18 22 25 23 19 20 19 17 13 16 16 17 18 16 15 13 12 12 9 6 6 8 9 9 12 13 9 9 10 9 8 8 6 10 11 12 12 12 12
11 17 17 18 17 17 17 20 25 23 21 22 22 21 20 20 19 16 16 15 15 16 17 17 16 15 13 12 10 8 6 8 8 8 11 11 8 10 11 9 9 9 10 8 8 10 11 12 10
8 11 14 6 7 8 8 15 5 6 11 15 17 17 16 19 18 16 15 14 14 16 19 17 14 16 13 11 9 7 6 7 7 8 8 13 12 9 7 7 8 11 9 9 7 11 12 12 10
10 11 12 13 12 13 13 14 6 7 13 17 15 14 14 14 17 15 13 12 14 17 19 19 18 17 15 12 9 9 8 6 6 6 7 10 11 10 9 10 9 12 9 11 7 9 12 11 11
7 13 11 12 5 14 21 23 20 21 17 17 15 17 15 14 15 15 10 10 13 16 17 18 16 16 14 9 9 7 7 6 6 5 5 9 8 11 11 7 10 11 10 9 7 10 11 12 11
13 15 17 17 16 20 22 22 19 18 20 20 18 18 17 16 15 16 10 9 13 15 18 20 19 18 12 11 10 8 8 7 5 7 10 11 10 10 10 7 11 11 12 13 12 10 15 11 11
18 18 18 16 13 12 18 24 23 24 22 21 21 19 18 16 18 17 14 10 14 17 19 19 19 19 15 11 10 7 7 5 7 8 11 12 13 15 12 8 12 14 11 13 13 14 12 11 13
16 15 14 15 15 18 20 23 10 5 14 18 21 23 20 18 18 17 17 14 14 17 20 20 20 20 17 14 9 8 6 4 6 7 7 6 7 11 13 14 8 16 14 12 14 14 16 12 13
13 9 11 11 10 8 4 9 11 10 8 10 14 15 18 20 18 18 17 17 17 17 18 19 20 19 17 17 13 14 9 8 8 6 5 5 7 9 12 15 14 10 11 13 13 13 13 14 14
7 4 7 9 11 13 15 10 5 6 4 10 6 11 15 18 19 17 16 17 16 16 18 18 19 19 18 16 14 11 11 7 5 5 8 6 4 4 7 10 14 13 9 14 16 15 15 12 12
2 5 9 10 9 9 15 10 3 6 11 11 13 12 10 9 11 14 13 12 14 16 17 15 17 19 19 16 15 13 13 10 7 6 5 6 4 5 6 6 8 11 9 12 11 14 14 11 11
10 5 3 7 6 8 4 8 10 9 9 10 12 13 13 13 11 11 8 11 14 19 18 15 18 19 18 17 14 13 13 11 10 9 5 7 5 3 6 7 6 7 9 10 9 10 11 11 10
12 12 6 6 5 2 4 8 6 4 7 12 12 14 16 18 16 12 7 9 13 17 16 16 19 19 18 16 14 11 12 8 8 8 7 6 5 6 10 7 9 9 9 10 9 7 7 8 9
8 9 4 5 11 8 9 6 7 6 11 14 17 18 18 19 20 16 6 9 12 15 15 15 19 18 17 15 13 11 11 12 9 9 8 6 6 8 10 11 9 10 10 11 11 8 9 9 10
8 6 5 5 5 6 6 8 3 7 11 15 17 18 17 17 19 19 8 6 9 13 14 15 19 18 18 16 13 10 11 11 10 8 9 8 7 8 9 10 10 11 12 12 12 9 8 9 7
7 5 6 1 5 5 4 2 5 6 8 12 13 12 13 15 17 17 9 4 7 11 12 11 14 16 16 15 14 13 11 10 9 8 9 9 9 8 10 9 9 11 12 11 11 11 11 11 8
6 6 10 5 5 3 6 3 7 5 4 7 5 9 10 12 15 15 15 4 9 11 12 11 13 13 14 13 12 12 11 10 8 8 9 8 9 9 9 11 10 10 11 12 12 12 12 15 13
Wind_Direction
188 205 220 220 241 235 254 241 293 205 212 171 305 230 226 328 197 0 90 140 148 156 156 171 172 166 169 164 158 159 166 172 170 169 171 165 161 158 153 152 153 151 149 151 152 151 145 137 129
169 169 205 243 249 237 238 215 240 233 345 286 256 243 243 237 248 83 146 150 151 154 159 172 172 164 160 154 150 155 167 172 173 170 171 165 163 157 157 157 159 156 154 157 157 150 141 136 131
170 200 229 228 239 245 253 178 264 145 311 243 232 250 241 224 182 189 101 152 146 155 155 155 162 162 158 153 158 162 170 173 180 169 169 166 164 162 161 160 160 161 159 158 156 147 137 134 129
175 183 222 240 241 238 262 250 244 195 148 111 333 256 223 289 204 193 149 155 158 152 162 131 164 164 164 162 166 169 179 167 168 170 168 169 176 170 157 154 159 162 166 158 155 144 135 129 127
211 230 236 230 245 248 233 268 234 249 268 287 319 276 271 201 206 182 167 166 163 161 166 160 169 171 172 176 173 173 177 173 174 177 182 181 176 159 160 162 162 157 167 164 151 138 133 130 130
197 255 238 241 240 226 248 251 243 256 262 264 274 288 271 22 219 182 172 175 166 164 165 163 174 178 171 180 181 176 176 180 178 202 188 176 168 172 170 172 172 166 168 164 145 135 135 132 130
240 220 248 258 260 238 241 267 232 255 268 269 189 258 278 359 281 200 181 174 164 161 167 162 183 184 175 180 188 186 181 180 182 190 195 175 170 152 127 146 121 112 235 159 144 141 139 136 133
229 250 256 253 256 241 240 235 253 252 257 82 253 232 231 360 342 211 188 177 172 166 167 175 179 185 191 196 182 195 189 178 180 174 126 142 129 141 162 148 162 162 190 163 153 147 140 139 133
228 239 243 244 236 253 236 242 214 277 258 241 240 279 348 348 351 211 195 192 187 181 186 170 175 179 187 195 190 184 198 169 152 138 139 141 167 169 165 169 172 182 166 161 156 152 137 138 136
216 237 246 258 252 254 254 258 269 248 237 226 240 240 244 289 314 249 219 204 208 191 192 191 185 182 187 192 186 207 204 203 203 178 170 174 172 178 174 179 186 177 165 162 155 154 144 160 156
222 248 263 244 251 258 261 264 254 250 249 252 258 264 277 260 287 262 245 233 212 202 189 218 194 194 192 185 186 179 179 183 192 182 169 183 180 180 196 185 198 180 178 170 146 161 169 168 163
257 240 262 262 257 255 258 266 265 255 252 266 259 266 264 265 269 261 251 236 223 203 196 190 192 197 196 188 186 185 167 171 173 194 178 172 189 189 193 179 195 181 172 162 169 182 169 173 162
242 259 265 263 261 263 270 263 266 265 260 251 258 260 256 257 257 255 250 245 228 213 199 191 184 191 182 193 178 171 173 178 184 190 185 180 190 188 188 192 196 169 175 166 179 175 169 172 164
288 278 274 269 270 265 264 265 260 255 254 252 254 255 249 249 250 253 250 241 233 211 207 190 184 191 194 204 185 177 175 183 187 190 188 187 181 187 193 200 188 166 167 182 171 172 167 171 163
271 273 272 262 258 250 269 263 251 258 256 253 252 252 245 246 247 246 251 249 232 214 206 191 181 184 200 202 195 187 179 186 180 184 188 184 200 188 196 206 182 163 166 153 176 179 172 167 169
276 271 269 272 238 224 227 273 218 210 238 246 246 248 243 238 238 239 245 239 225 207 199 186 183 181 191 198 198 191 171 185 187 186 180 186 191 195 206 197 188 165 162 168 175 184 174 170 167
225 265 262 278 237 278 245 281 307 266 278 271 265 262 253 247 242 235 238 231 217 199 192 182 184 182 181 195 193 196 169 183 174 176 184 192 193 196 200 206 180 159 158 174 161 194 177 171 169
229 236 248 264 262 283 284 275 273 267 262 263 269 262 256 245 239 235 233 214 200 192 190 181 185 180 169 178 179 185 169 185 175 183 188 185 193 198 204 195 171 160 161 162 168 185 191 174 168
264 268 274 280 281 281 278 277 276 273 263 253 247 254 244 242 244 244 229 204 191 189 187 183 180 178 164 180 171 180 192 183 190 198 206 207 197 200 207 200 178 161 166 168 173 181 180 173 169
250 260 270 282 272 276 283 284 283 265 256 253 248 244 248 254 248 240 230 201 196 188 187 183 182 174 179 183 174 177 183 196 205 212 214 215 212 211 199 200 193 171 165 169 170 186 176 175 175
236 251 265 277 292 277 276 282 253 259 249 251 248 249 245 251 252 245 241 211 194 195 188 184 181 179 177 178 161 177 167 175 202 222 221 229 228 219 210 203 201 169 162 168 173 189 178 166 179
238 231 253 270 281 278 10 291 299 288 301 260 253 251 242 238 242 243 248 210 201 198 185 182 181 177 175 167 170 184 192 190 205 206 191 204 230 227 214 188 174 179 162 166 175 191 181 176 178
246 183 245 263 268 292 269 252 253 241 314 4 345 309 246 247 248 255 238 225 201 187 179 182 175 175 172 170 181 181 194 194 199 174 167 168 152 169 170 174 170 166 169 169 176 187 188 178 181
200 218 242 253 258 250 247 233 255 38 358 338 351 341 353 328 302 289 265 227 194 181 170 167 171 173 169 177 180 186 187 186 190 162 164 159 164 159 136 128 165 149 153 157 177 181 184 176 189
211 213 236 200 205 253 133 227 280 20 9 359 355 351 341 338 332 321 258 206 185 176 155 161 167 167 166 183 176 186 191 180 192 160 151 148 152 143 143 144 143 147 148 153 161 176 181 187 191
214 214 246 266 240 245 175 240 106 70 30 14 4 358 353 346 340 334 266 204 182 173 153 165 167 161 164 178 169 176 198 169 185 180 173 168 165 165 157 154 160 158 146 156 158 169 186 198 201
167 217 291 268 239 261 246 203 181 58 34 16 13 7 354 350 342 345 296 182 180 161 162 166 166 161 162 170 163 175 187 163 176 182 189 182 184 164 176 171 168 162 164 164 168 166 186 202 203
255 136 186 207 238 236 199 247 128 34 23 8 2 2 354 352 346 341 5 170 163 147 167 174 172 162 162 168 164 173 182 178 169 179 173 175 183 174 178 177 177 172 170 171 169 163 185 191 198
171 190 222 274 282 298 302 144 105 78 18 339 357 358 355 358 347 343 341 111 148 154 165 156 156 161 163 166 167 172 175 174 161 171 183 180 177 183 169 169 168 175 173 173 179 181 185 202 190
233 197 212 246 156 301 312 318 113 147 313 347 10 11 1 11 355 350 358 81 122 141 143 151 151 157 156 161 167 168 167 166 172 190 196 174 171 177 174 164 169 167 180 183 187 188 198 212 215